TimeCST,TemperatureF,Dew PointF,Humidity,Sea Level PressureIn,VisibilityMPH,Wind Direction,Wind SpeedMPH,Gust SpeedMPH,PrecipitationIn,Events,Conditions,WindDirDegrees,DateUTC
12:15 AM,37.4,26.6,65,30.03,10.0,West,11.5,17.3,N/A,,Clear,270,2013-02-11 06:15:00
12:35 AM,35.6,26.6,70,30.03,10.0,West,10.4,-,N/A,,Clear,270,2013-02-11 06:35:00
12:55 AM,35.6,26.6,70,30.03,10.0,West,11.5,-,N/A,,Clear,280,2013-02-11 06:55:00
1:15 AM,35.6,26.6,70,30.02,10.0,West,9.2,-,N/A,,Clear,280,2013-02-11 07:15:00
1:35 AM,35.6,26.6,70,30.02,10.0,WNW,10.4,-,N/A,,Clear,290,2013-02-11 07:35:00
1:55 AM,35.6,26.6,70,30.03,10.0,West,9.2,-,N/A,,Clear,280,2013-02-11 07:55:00
2:15 AM,33.8,26.6,75,30.03,10.0,West,8.1,-,N/A,,Clear,280,2013-02-11 08:15:00
2:35 AM,33.8,26.6,75,30.03,10.0,West,9.2,-,N/A,,Clear,280,2013-02-11 08:35:00
2:55 AM,33.8,26.6,75,30.02,10.0,WNW,9.2,-,N/A,,Clear,290,2013-02-11 08:55:00
3:15 AM,33.8,26.6,75,30.02,10.0,WNW,8.1,-,N/A,,Clear,290,2013-02-11 09:15:00
3:35 AM,33.8,26.6,75,30.02,10.0,WNW,10.4,-,N/A,,Clear,290,2013-02-11 09:35:00
3:55 AM,33.8,26.6,75,30.03,10.0,WNW,11.5,-,N/A,,Clear,290,2013-02-11 09:55:00
4:15 AM,33.8,26.6,75,30.05,10.0,West,6.9,-,N/A,,Clear,270,2013-02-11 10:15:00
4:35 AM,32.0,26.6,80,30.06,10.0,WSW,5.8,-,N/A,,Clear,250,2013-02-11 10:35:00
4:55 AM,32.0,24.8,75,30.07,10.0,West,5.8,-,N/A,,Clear,260,2013-02-11 10:55:00
5:15 AM,32.0,26.6,80,30.08,10.0,West,6.9,-,N/A,,Clear,270,2013-02-11 11:15:00
5:35 AM,32.0,26.6,80,30.09,10.0,West,6.9,-,N/A,,Clear,260,2013-02-11 11:35:00
5:55 AM,32.0,26.6,80,30.10,10.0,WSW,4.6,-,N/A,,Clear,250,2013-02-11 11:55:00
6:15 AM,30.2,26.6,86,30.12,10.0,WSW,5.8,-,N/A,,Clear,250,2013-02-11 12:15:00
6:35 AM,32.0,26.6,80,30.12,10.0,West,6.9,-,N/A,,Clear,270,2013-02-11 12:35:00
6:55 AM,32.0,24.8,75,30.12,10.0,WSW,4.6,-,N/A,,Clear,240,2013-02-11 12:55:00
7:15 AM,30.2,24.8,80,30.12,10.0,West,4.6,-,N/A,,Clear,260,2013-02-11 13:15:00
7:35 AM,32.0,26.6,80,30.12,10.0,West,5.8,-,N/A,,Clear,270,2013-02-11 13:35:00
7:55 AM,32.0,26.6,80,30.13,10.0,West,5.8,-,N/A,,Clear,280,2013-02-11 13:55:00
8:15 AM,32.0,26.6,80,30.15,10.0,West,4.6,-,N/A,,Clear,270,2013-02-11 14:15:00
8:35 AM,33.8,26.6,75,30.15,10.0,WNW,6.9,-,N/A,,Clear,290,2013-02-11 14:35:00
8:55 AM,33.8,26.6,75,30.16,10.0,NW,6.9,-,N/A,,Clear,310,2013-02-11 14:55:00
9:15 AM,33.8,26.6,75,30.17,10.0,NW,5.8,-,N/A,,Clear,320,2013-02-11 15:15:00
9:35 AM,35.6,26.6,70,30.18,10.0,NW,8.1,-,N/A,,Clear,310,2013-02-11 15:35:00
9:55 AM,35.6,26.6,70,30.18,10.0,NW,9.2,-,N/A,,Clear,320,2013-02-11 15:55:00
10:15 AM,37.4,26.6,65,30.18,10.0,NW,6.9,-,N/A,,Clear,320,2013-02-11 16:15:00
10:35 AM,37.4,26.6,65,30.18,10.0,NW,8.1,-,N/A,,Clear,310,2013-02-11 16:35:00
10:55 AM,39.2,28.4,65,30.18,10.0,NW,9.2,-,N/A,,Clear,320,2013-02-11 16:55:00
11:15 AM,41.0,28.4,61,30.18,10.0,WNW,5.8,-,N/A,,Clear,290,2013-02-11 17:15:00
11:35 AM,41.0,26.6,57,30.18,10.0,West,6.9,-,N/A,,Clear,270,2013-02-11 17:35:00
11:55 AM,41.0,26.6,57,30.17,10.0,WSW,4.6,-,N/A,,Clear,250,2013-02-11 17:55:00
12:15 PM,42.8,28.4,57,30.16,10.0,WSW,4.6,-,N/A,,Clear,250,2013-02-11 18:15:00
12:35 PM,42.8,28.4,57,30.16,10.0,WNW,4.6,-,N/A,,Clear,290,2013-02-11 18:35:00
12:55 PM,44.6,26.6,49,30.15,10.0,WNW,8.1,-,N/A,,Clear,300,2013-02-11 18:55:00
1:15 PM,44.6,26.6,49,30.14,10.0,NW,8.1,-,N/A,,Clear,310,2013-02-11 19:15:00
1:35 PM,44.6,26.6,49,30.14,10.0,West,8.1,-,N/A,,Clear,280,2013-02-11 19:35:00
1:55 PM,46.4,26.6,46,30.14,10.0,WNW,5.8,-,N/A,,Clear,290,2013-02-11 19:55:00
2:15 PM,46.4,26.6,46,30.13,10.0,NW,4.6,-,N/A,,Clear,310,2013-02-11 20:15:00
2:35 PM,46.4,26.6,46,30.12,10.0,West,3.5,-,N/A,,Clear,280,2013-02-11 20:35:00
2:55 PM,46.4,26.6,46,30.12,10.0,Calm,Calm,-,N/A,,Clear,0,2013-02-11 20:55:00
3:15 PM,46.4,26.6,46,30.12,10.0,Calm,Calm,-,N/A,,Clear,0,2013-02-11 21:15:00
3:35 PM,48.2,26.6,43,30.11,10.0,WNW,3.5,-,N/A,,Clear,290,2013-02-11 21:35:00
3:55 PM,48.2,23.0,37,30.11,10.0,Calm,Calm,-,N/A,,Clear,0,2013-02-11 21:55:00
4:55 PM,46.4,24.8,43,30.10,10.0,NNW,6.9,-,N/A,,Clear,330,2013-02-11 22:55:00
5:15 PM,46.4,24.8,43,30.10,10.0,NW,5.8,-,N/A,,Clear,320,2013-02-11 23:15:00
5:35 PM,44.6,26.6,49,30.10,10.0,NNW,3.5,-,N/A,,Clear,340,2013-02-11 23:35:00
5:55 PM,42.8,26.6,53,30.10,10.0,NNW,4.6,-,N/A,,Clear,340,2013-02-11 23:55:00
6:15 PM,42.8,24.8,49,30.11,10.0,NNW,3.5,-,N/A,,Clear,340,2013-02-12 00:15:00
6:35 PM,41.0,26.6,57,30.11,10.0,North,4.6,-,N/A,,Clear,350,2013-02-12 00:35:00
6:55 PM,41.0,24.8,53,30.12,10.0,Calm,Calm,-,N/A,,Clear,0,2013-02-12 00:55:00
7:15 PM,41.0,24.8,53,30.13,10.0,Calm,Calm,-,N/A,,Clear,0,2013-02-12 01:15:00
7:55 PM,41.0,23.0,49,30.12,10.0,Calm,Calm,-,N/A,,Clear,0,2013-02-12 01:55:00
8:15 PM,37.4,24.8,60,30.12,10.0,NE,3.5,-,N/A,,Clear,50,2013-02-12 02:15:00
8:35 PM,35.6,24.8,65,30.13,10.0,Calm,Calm,-,N/A,,Clear,0,2013-02-12 02:35:00
8:55 PM,37.4,24.8,60,30.13,10.0,Calm,Calm,-,N/A,,Clear,0,2013-02-12 02:55:00
9:15 PM,35.6,24.8,65,30.13,10.0,Calm,Calm,-,N/A,,Clear,0,2013-02-12 03:15:00
9:35 PM,35.6,24.8,65,30.14,10.0,Calm,Calm,-,N/A,,Clear,0,2013-02-12 03:35:00
9:55 PM,33.8,24.8,70,30.14,10.0,NNE,3.5,-,N/A,,Clear,20,2013-02-12 03:55:00
10:15 PM,33.8,24.8,70,30.13,10.0,NE,4.6,-,N/A,,Clear,40,2013-02-12 04:15:00
10:55 PM,33.8,24.8,70,30.13,10.0,ENE,3.5,-,N/A,,Scattered Clouds,70,2013-02-12 04:55:00
11:15 PM,33.8,26.6,75,30.14,10.0,Calm,Calm,-,N/A,,Clear,0,2013-02-12 05:15:00
11:35 PM,33.8,26.6,75,30.15,10.0,Calm,Calm,-,N/A,,Clear,0,2013-02-12 05:35:00
11:55 PM,33.8,26.6,75,30.15,10.0,Calm,Calm,-,N/A,,Clear,0,2013-02-12 05:55:00